Flag for Mexico Weather past 2 weeks in Querétaro, Querétaro, Mexico

Now
54 °F

Passing clouds.


Feels Like: 53 °F
Forecast: 55 / 80 °F
Wind: 5 mph from Northeast

Location: Queretaro - Qro.

Current Time: Aug 1, 2015 at 7:14:22 AM

Latest Report: Aug 1, 2015 at 6:45 AM


Visibility: 7 mi

Pressure: 30.32 "Hg (24.39 "Hg at 1817m altitude)

Humidity: 94%

Dew point: 52 °F

Location of QuerétaroLocation

Historic Weather in Querétaro — Graph

°F

Querétaro temperature yesterday

Maximum temperature yesterday: 79 °F (at 4:45 PM)
Minimum temperature yesterday: 54 °F (at 4:45 AM)
Average temperature yesterday: 65 °F

Past Weeks' High & Low Weather Summary

 TemperatureHumidityPressure
High82 °F (Jul 26, 4:55 PM)100% (Jul 18, 7:45 PM)30.45 "Hg (Jul 18, 7:45 PM)
Low48 °F (Jul 27, 7:45 AM)23% (Jul 25, 3:45 PM)30.17 "Hg (Jul 21, 4:55 PM)
Average66 °F71%30.32 "Hg
* Reported Jul 17 5:48 AM — Aug 1 5:45 AM, Querétaro, Weather by CustomWeather, © 2015

Note: Actual official high and low records may vary slightly from our data, if they occured in-between our weather recording intervals... More about our weather records

Advertising

Querétaro weather history for previous 24 hours

 ConditionsComfort  
Time TempWeatherWind HumidityBarometerVisibility
5:45 AM
Sat, Aug 1
54 °FPassing clouds.5 mph94%30.32 "Hg6 mi
4:45 AM55 °FPassing clouds.5 mph94%30.31 "Hg6 mi
3:45 AM57 °FPassing clouds.6 mph88%30.33 "Hg5 mi
2:45 AM57 °FPassing clouds.7 mph88%30.34 "Hg7 mi
1:45 AM57 °FPassing clouds.5 mph82%30.36 "Hg7 mi
12:45 AM55 °FPassing clouds.6 mph88%30.37 "Hg7 mi
11:45 PM
Fri, Jul 31
57 °FPassing clouds.8 mph82%30.37 "Hg7 mi
10:45 PM64 °FPassing clouds.7 mph64%30.35 "Hg7 mi
9:45 PM66 °FPartly cloudy.10 mph60%30.32 "Hg7 mi
8:45 PM70 °FPartly sunny.17 mph53%30.28 "Hg7 mi
7:45 PM75 °FPartly sunny.15 mph41%30.26 "Hg7 mi
5:45 PM79 °FBroken clouds.12 mph34%30.25 "Hg7 mi
4:45 PM79 °FPartly sunny.9 mph34%30.27 "Hg7 mi
3:45 PMN/APartly sunny.6 mphN/A30.29 "Hg7 mi
2:45 PM77 °FBroken clouds.3 mph36%30.32 "Hg10 mi
1:45 PM75 °FScattered clouds.6 mph41%30.34 "Hg8 mi
12:50 PM73 °FScattered clouds.7 mph44%30.37 "Hg8 mi
12:45 PM73 °FMild.7 mph44%30.37 "Hg8 mi
11:45 AM70 °FPassing clouds.9 mph60%30.39 "Hg7 mi
10:50 AM66 °FPartly sunny.9 mph68%30.40 "Hg6 mi
9:48 AM63 °FBroken clouds.5 mph77%30.41 "Hg5 mi
8:45 AM57 °FScattered clouds.6 mph94%30.40 "Hg5 mi
7:45 AM54 °FPassing clouds.No wind94%30.38 "Hg6 mi
Weather by CustomWeather, © 2015

See weather overviewHow to use our weather pages